| time (UTC) | temp C | wind direction | speed KPH | gust KPH | rain 1hr cm | rain 24hr cm | rain mn cm | humidity % | barometer mb |
| 20260507000024 | 18 | 326 | 0.0 | 0.0 | 0.00 | 0.20 | 0.20 | 87 | 1007.0 |
| 20260506234515 | 18 | 359 | 0.0 | 0.0 | 0.00 | 0.20 | 0.20 | 86 | 1007.0 |
| 20260506233017 | 18 | 359 | 0.0 | 0.0 | 0.00 | 0.20 | 0.20 | 86 | 1007.1 |
| 20260506231515 | 18 | 359 | 0.0 | 0.0 | 0.00 | 0.20 | 0.20 | 85 | 1006.9 |
| 20260506230016 | 19 | 359 | 0.0 | 0.0 | 0.00 | 0.20 | 0.20 | 84 | 1006.8 |
| 20260506224514 | 19 | 359 | 0.0 | 0.0 | 0.00 | 0.20 | 0.20 | 84 | 1006.9 |
| 20260506223014 | 20 | 325 | 0.0 | 0.0 | 0.00 | 0.20 | 0.20 | 83 | 1006.9 |
| 20260506221513 | 20 | 325 | 0.0 | 0.0 | 0.00 | 0.20 | 0.20 | 83 | 1006.8 |
| 20260506220013 | 20 | 295 | 0.0 | 0.0 | 0.00 | 0.20 | 0.20 | 83 | 1006.6 |
| 20260506214512 | 20 | 321 | 0.0 | 0.0 | 0.00 | 0.20 | 0.20 | 83 | 1006.6 |
| 20260506213015 | 20 | 4 | 0.0 | 0.0 | 0.00 | 0.20 | 0.20 | 82 | 1006.5 |
| 20260506211512 | 20 | 227 | 0.0 | 1.6 | 0.00 | 0.20 | 0.20 | 84 | 1006.5 |
| 20260506210014 | 20 | 207 | 0.0 | 0.0 | 0.00 | 0.20 | 0.20 | 84 | 1006.5 |
| 20260506204511 | 20 | 233 | 0.0 | 0.0 | 0.00 | 0.20 | 0.20 | 84 | 1006.4 |
| 20260506203010 | 20 | 233 | 0.0 | 0.0 | 0.00 | 0.20 | 0.20 | 84 | 1006.5 |
| 20260506201510 | 20 | 238 | 0.0 | 0.0 | 0.00 | 0.20 | 0.20 | 83 | 1006.3 |
| 20260506200009 | 18 | 137 | 0.0 | 0.0 | 0.00 | 0.20 | 0.20 | 86 | 1006.2 |
| 20260506194511 | 17 | 316 | 0.0 | 0.0 | 0.00 | 0.20 | 0.20 | 89 | 1006.6 |
| 20260506193005 | 17 | 316 | 0.0 | 0.0 | 0.00 | 0.20 | 0.20 | 91 | 1006.7 |
| 20260506191505 | 17 | 267 | 0.0 | 0.0 | 0.00 | 0.20 | 0.20 | 92 | 1006.9 |
| 20260506190004 | 17 | 246 | 0.0 | 0.0 | 0.00 | 0.20 | 0.20 | 91 | 1007.1 |
| 20260506184502 | 17 | 294 | 0.0 | 0.0 | 0.00 | 0.20 | 0.20 | 92 | 1007.0 |
| 20260506183106 | 16 | 359 | 0.0 | 0.0 | 0.00 | 0.20 | 0.20 | 93 | 1007.2 |
| 20260506181600 | 16 | 359 | 0.0 | 0.0 | 0.00 | 0.20 | 0.20 | 93 | 1007.3 |
| 20260506180106 | 16 | 359 | 0.0 | 1.6 | 0.00 | 0.20 | 0.20 | 93 | 1007.3 |
| 20260506174558 | 16 | 359 | 0.0 | 0.0 | 0.00 | 0.20 | 0.20 | 94 | 1007.5 |
| 20260506173122 | 16 | 359 | 0.0 | 1.6 | 0.00 | 0.20 | 0.20 | 93 | 1007.5 |
| 20260506171602 | 16 | 359 | 0.0 | 0.0 | 0.00 | 0.20 | 0.20 | 93 | 1007.6 |
| 20260506170054 | 16 | 359 | 0.0 | 0.0 | 0.08 | 0.20 | 0.20 | 93 | 1007.7 |
| 20260506164554 | 16 | 359 | 0.0 | 0.0 | 0.10 | 0.20 | 0.20 | 93 | 1007.9 |
| 20260506163058 | 16 | 359 | 0.0 | 0.0 | 0.15 | 0.20 | 0.20 | 94 | 1007.9 |
| 20260506161556 | 16 | 359 | 0.0 | 0.0 | 0.15 | 0.20 | 0.20 | 94 | 1007.9 |
| 20260506160104 | 16 | 359 | 0.0 | 0.0 | 0.13 | 0.13 | 0.13 | 92 | 1008.3 |
| 20260506154547 | 16 | 359 | 0.0 | 1.6 | 0.10 | 0.10 | 0.10 | 91 | 1009.0 |
| 20260506153048 | 16 | 359 | 0.0 | 0.0 | 0.05 | 0.05 | 0.05 | 90 | 1009.0 |
| 20260506151545 | 16 | 359 | 0.0 | 1.6 | 0.05 | 0.05 | 0.05 | 88 | 1008.9 |
| 20260506150043 | 17 | 359 | 0.0 | 0.0 | 0.00 | 0.00 | 0.00 | 85 | 1008.6 |
| 20260506144541 | 17 | 359 | 0.0 | 0.0 | 0.00 | 0.00 | 0.00 | 82 | 1008.6 |
| 20260506143041 | 18 | 359 | 0.0 | 0.0 | 0.00 | 0.00 | 0.00 | 81 | 1008.8 |
| 20260506141541 | 18 | 359 | 0.0 | 0.0 | 0.00 | 0.00 | 0.00 | 78 | 1008.9 |
| 20260506140045 | 19 | 307 | 0.0 | 0.0 | 0.00 | 0.00 | 0.00 | 73 | 1008.7 |
| 20260506134608 | 20 | 293 | 0.0 | 0.0 | 0.00 | 0.00 | 0.00 | 72 | 1008.5 |
| 20260506133038 | 18 | 310 | 0.0 | 1.6 | 0.00 | 0.00 | 0.00 | 75 | 1008.5 |
| 20260506131550 | 18 | 359 | 0.0 | 0.0 | 0.00 | 0.00 | 0.00 | 77 | 1008.7 |
| 20260506130037 | 18 | 359 | 0.0 | 0.0 | 0.00 | 0.00 | 0.00 | 76 | 1008.7 |
| 20260506124536 | 18 | 359 | 0.0 | 0.0 | 0.00 | 0.00 | 0.00 | 75 | 1009.0 |
| 20260506123043 | 19 | 341 | 0.0 | 1.6 | 0.00 | 0.00 | 0.00 | 74 | 1008.9 |
| 20260506121536 | 18 | 283 | 0.0 | 1.6 | 0.00 | 0.00 | 0.00 | 77 | 1008.8 |
| 20260506120031 | 18 | 331 | 0.0 | 0.0 | 0.00 | 0.00 | 0.00 | 78 | 1008.5 |
| 20260506114537 | 18 | 340 | 0.0 | 1.6 | 0.00 | 0.00 | 0.00 | 79 | 1008.7 |
| 20260506113034 | 17 | 104 | 0.0 | 0.0 | 0.00 | 0.00 | 0.00 | 80 | 1008.5 |
| 20260506111530 | 17 | 325 | 0.0 | 1.6 | 0.00 | 0.00 | 0.00 | 80 | 1008.5 |
| 20260506110030 | 17 | 359 | 0.0 | 0.0 | 0.00 | 0.00 | 0.00 | 80 | 1008.5 |
| 20260506104528 | 17 | 359 | 0.0 | 1.6 | 0.00 | 0.00 | 0.00 | 81 | 1008.5 |
| 20260506103032 | 17 | 359 | 0.0 | 0.0 | 0.00 | 0.00 | 0.00 | 82 | 1008.4 |
| 20260506101528 | 17 | 359 | 0.0 | 1.6 | 0.00 | 0.00 | 0.00 | 82 | 1008.4 |
| 20260506100033 | 17 | 359 | 0.0 | 0.0 | 0.00 | 0.00 | 0.00 | 82 | 1008.3 |
| 20260506094526 | 16 | 359 | 0.0 | 0.0 | 0.00 | 0.00 | 0.00 | 82 | 1008.4 |
| 20260506093027 | 17 | 359 | 0.0 | 0.0 | 0.00 | 0.00 | 0.00 | 81 | 1008.6 |
| 20260506091526 | 17 | 359 | 0.0 | 1.6 | 0.00 | 0.00 | 0.00 | 81 | 1008.5 |
| 20260506090024 | 17 | 359 | 0.0 | 0.0 | 0.00 | 0.00 | 0.00 | 80 | 1008.5 |
| 20260506084527 | 17 | 359 | 0.0 | 0.0 | 0.00 | 0.00 | 0.00 | 80 | 1008.6 |
| 20260506083023 | 17 | 359 | 0.0 | 1.6 | 0.00 | 0.00 | 0.00 | 80 | 1008.5 |
| 20260506081528 | 17 | 359 | 0.0 | 0.0 | 0.00 | 0.00 | 0.00 | 81 | 1008.6 |
| 20260506073020 | 17 | 359 | 0.0 | 0.0 | 0.00 | 0.05 | 0.00 | 80 | 1008.8 |
| 20260506071519 | 18 | 359 | 0.0 | 1.6 | 0.00 | 0.05 | 0.00 | 79 | 1008.8 |
| 20260506061515 | 18 | 359 | 0.0 | 14.5 | 0.00 | 0.05 | 0.00 | 79 | 1009.2 |
| 20260506044504 | 17 | 359 | 0.0 | 0.0 | 0.00 | 0.05 | 0.00 | 78 | 1009.8 |
| 20260506043006 | 17 | 359 | 0.0 | 0.0 | 0.00 | 0.05 | 0.00 | 77 | 1009.9 |
| 20260506041504 | 17 | 359 | 0.0 | 0.0 | 0.00 | 0.05 | 0.00 | 77 | 1009.8 |
| 20260506040100 | 17 | 359 | 0.0 | 0.0 | 0.00 | 0.05 | 0.00 | 75 | 1009.9 |
| 20260506034601 | 17 | 339 | 0.0 | 0.0 | 0.00 | 0.05 | 0.05 | 75 | 1009.8 |
| 20260506033057 | 18 | 21 | 0.0 | 0.0 | 0.00 | 0.05 | 0.05 | 74 | 1009.6 |
| 20260506031600 | 18 | 18 | 0.0 | 0.0 | 0.00 | 0.05 | 0.05 | 72 | 1009.5 |
| 20260506030058 | 18 | 68 | 0.0 | 0.0 | 0.00 | 0.05 | 0.05 | 70 | 1009.7 |
| 20260506024604 | 19 | 11 | 0.0 | 0.0 | 0.00 | 0.05 | 0.05 | 68 | 1009.7 |
| 20260506023055 | 20 | 359 | 0.0 | 0.0 | 0.00 | 0.05 | 0.05 | 67 | 1009.9 |
| 20260506021555 | 20 | 359 | 0.0 | 0.0 | 0.00 | 0.05 | 0.05 | 64 | 1009.8 |
| 20260506020107 | 20 | 359 | 0.0 | 0.0 | 0.00 | 0.05 | 0.05 | 63 | 1009.6 |
| 20260506014610 | 21 | 359 | 0.0 | 0.0 | 0.00 | 0.05 | 0.05 | 60 | 1009.4 |
| 20260506013055 | 21 | 359 | 0.0 | 0.0 | 0.00 | 0.05 | 0.05 | 59 | 1009.3 |
| 20260506011619 | 21 | 359 | 0.0 | 0.0 | 0.00 | 0.05 | 0.05 | 58 | 1009.1 |
| 20260506010053 | 21 | 359 | 0.0 | 0.0 | 0.00 | 0.05 | 0.05 | 56 | 1009.0 |
| 20260506004603 | 22 | 52 | 0.0 | 0.0 | 0.00 | 0.05 | 0.05 | 56 | 1008.8 |
| 20260506003052 | 22 | 340 | 0.0 | 0.0 | 0.00 | 0.05 | 0.05 | 53 | 1008.8 |
| 20260506001553 | 23 | 103 | 0.0 | 0.0 | 0.00 | 0.05 | 0.05 | 53 | 1008.6 |